GW2062 Weather Reports


time (UTC)temp
C
wind
direction
speed
KPH
gust
KPH
rain 1hr
cm
rain 24hr
cm
rain mn
cm
humidity
%
barometer
mb
20260506135538 6 61 0.0 6.4 0.00 0.05 0.00 70 1008.1
20260506135136 5 4 0.0 11.3 0.00 0.05 0.00 71 1008.2
20260506134536 5 89 0.0 19.3 0.00 0.05 0.00 70 1008.2
20260506134035 5 38 0.0 19.3 0.00 0.05 0.00 71 1008.0
20260506133535 5 43 0.0 17.7 0.00 0.05 0.00 72 1008.1
20260506133033 5 70 3.2 17.7 0.00 0.05 0.00 70 1007.9
20260506132532 5 77 0.0 12.9 0.00 0.05 0.00 72 1007.9
20260506132034 5 84 1.6 12.9 0.00 0.05 0.00 72 1007.6
20260506131535 5 348 0.0 14.5 0.00 0.05 0.00 73 1007.6
20260506131028 5 295 1.6 14.5 0.00 0.05 0.00 73 1007.6
20260506130528 4 347 0.0 14.5 0.00 0.05 0.00 73 1007.5
20260506130028 4 77 1.6 14.5 0.00 0.05 0.00 73 1007.6
20260506125527 4 49 0.0 17.7 0.00 0.05 0.00 72 1007.5
20260506125129 4 335 0.0 11.3 0.00 0.05 0.00 73 1007.4
20260506124525 4 340 0.0 11.3 0.00 0.05 0.00 72 1007.4
20260506124026 4 106 0.0 19.3 0.00 0.05 0.00 71 1007.3
20260506123524 5 193 0.0 8.0 0.00 0.05 0.00 72 1007.5
20260506123024 4 354 0.0 4.8 0.00 0.05 0.00 72 1007.5
20260506122522 4 26 0.0 11.3 0.00 0.05 0.00 75 1007.2
20260506122022 4 341 0.0 11.3 0.00 0.05 0.00 75 1007.1
20260506121520 4 20 0.0 16.1 0.00 0.05 0.00 73 1006.9
20260506121020 4 46 0.0 16.1 0.00 0.05 0.00 74 1006.9
20260506120519 4 61 0.0 3.2 0.00 0.05 0.00 75 1007.0
20260506120018 4 303 0.0 6.4 0.00 0.05 0.00 76 1006.9
20260506115516 3 229 0.0 6.4 0.00 0.05 0.00 77 1006.9
20260506115116 3 151 0.0 0.0 0.00 0.05 0.00 79 1006.9
20260506114516 3 58 0.0 1.6 0.00 0.05 0.00 80 1006.8
20260506114015 3 284 0.0 1.6 0.00 0.05 0.00 79 1006.8
20260506113514 3 275 0.0 3.2 0.00 0.05 0.00 80 1006.7
20260506113013 3 82 0.0 3.2 0.00 0.05 0.00 80 1006.6
20260506112516 3 85 0.0 0.0 0.00 0.05 0.00 80 1006.4
20260506112011 4 272 0.0 1.6 0.00 0.05 0.00 80 1006.4
20260506111520 4 84 0.0 3.2 0.00 0.05 0.00 80 1006.2
20260506111010 4 275 0.0 3.2 0.00 0.05 0.00 80 1006.1
20260506110509 4 293 0.0 8.0 0.00 0.05 0.00 79 1006.0
20260506110011 4 94 0.0 8.0 0.00 0.05 0.00 79 1005.9
20260506105507 4 64 0.0 6.4 0.00 0.05 0.00 79 1006.0
20260506105106 4 174 0.0 0.0 0.00 0.05 0.00 81 1005.8
20260506104506 4 105 0.0 0.0 0.00 0.05 0.00 81 1005.9
20260506104007 4 44 0.0 1.6 0.00 0.05 0.05 80 1005.6
20260506103503 4 288 0.0 1.6 0.00 0.05 0.05 80 1005.3
20260506103003 4 280 0.0 3.2 0.00 0.05 0.05 80 1005.2
20260506102503 4 295 0.0 3.2 0.00 0.05 0.05 80 1005.1
20260506102002 4 88 0.0 1.6 0.00 0.05 0.05 80 1005.1
20260506101637 4 58 0.0 1.6 0.00 0.05 0.05 80 1005.0
20260506101500 4 327 0.0 1.6 0.00 0.05 0.05 80 1004.9
20260506101200 4 80 0.0 1.6 0.00 0.05 0.05 80 1005.0
20260506100600 5 85 0.0 1.6 0.00 0.05 0.05 79 1005.1
20260506100100 5 299 0.0 1.6 0.00 0.05 0.05 79 1004.9
20260506095558 5 51 0.0 0.0 0.00 0.05 0.05 80 1004.9
20260506095100 5 35 0.0 0.0 0.00 0.05 0.05 79 1005.0
20260506094600 5 32 0.0 1.6 0.00 0.05 0.05 79 1005.0
20260506094057 5 84 0.0 1.6 0.00 0.05 0.05 79 1005.0
20260506093556 5 42 0.0 1.6 0.00 0.05 0.05 80 1004.9
20260506093100 5 35 0.0 1.6 0.00 0.05 0.05 79 1004.8
20260506092556 5 77 0.0 6.4 0.00 0.05 0.05 80 1004.8
20260506092056 5 127 0.0 6.4 0.00 0.05 0.05 80 1004.8
20260506091556 5 60 0.0 6.4 0.00 0.05 0.05 80 1004.8
20260506091059 5 51 0.0 8.0 0.00 0.05 0.05 79 1004.7
20260506090555 5 76 0.0 3.2 0.00 0.05 0.05 79 1004.7
20260506090109 5 112 0.0 3.2 0.00 0.05 0.05 78 1004.7
20260506085554 5 46 0.0 8.0 0.00 0.05 0.05 78 1004.7
20260506085055 5 276 0.0 9.7 0.00 0.05 0.05 77 1004.8
20260506084628 5 107 0.0 9.7 0.00 0.05 0.05 77 1004.8
20260506084056 6 249 0.0 9.7 0.00 0.05 0.05 76 1004.7
20260506083556 6 348 0.0 6.4 0.00 0.05 0.05 76 1004.7
20260506083057 6 76 0.0 0.0 0.00 0.05 0.05 77 1004.8
20260506082555 6 53 0.0 0.0 0.00 0.05 0.05 78 1004.7
20260506082054 6 56 0.0 0.0 0.00 0.05 0.05 78 1004.7
20260506081609 6 300 0.0 0.0 0.00 0.05 0.05 78 1004.7
20260506081054 6 293 0.0 0.0 0.00 0.05 0.05 78 1004.8
20260506080553 6 285 0.0 0.0 0.00 0.05 0.05 78 1004.9
20260506073050 6 87 0.0 0.0 0.00 0.05 0.05 78 1004.5
20260506072548 6 285 0.0 0.0 0.00 0.05 0.05 77 1004.4
20260506072050 6 251 0.0 0.0 0.00 0.05 0.05 77 1004.3
20260506071548 7 290 0.0 0.0 0.00 0.05 0.05 77 1004.4
20260506071046 7 305 0.0 0.0 0.00 0.05 0.05 77 1004.4
20260506070546 7 274 0.0 0.0 0.00 0.05 0.05 76 1004.3
20260506062041 8 110 0.0 0.0 0.00 0.05 0.05 67 1004.0
20260506061543 8 287 0.0 0.0 0.00 0.05 0.05 66 1003.9
20260506061040 8 288 0.0 0.0 0.00 0.05 0.05 64 1003.8
20260506060539 8 288 0.0 0.0 0.00 0.05 0.05 64 1003.6
20260506051036 9 226 0.0 0.0 0.00 0.05 0.05 59 1003.6
20260506050536 9 235 0.0 0.0 0.00 0.05 0.05 60 1003.5
20260506045036 9 243 0.0 0.0 0.00 0.05 0.05 58 1003.6
20260506044538 9 217 0.0 0.0 0.00 0.05 0.05 58 1003.6
20260506044036 9 271 0.0 0.0 0.00 0.05 0.05 59 1003.7
20260506043533 10 254 0.0 0.0 0.00 0.05 0.05 58 1003.6
20260506043033 10 253 0.0 0.0 0.00 0.05 0.05 58 1003.7
20260506042533 10 290 0.0 0.0 0.00 0.05 0.05 58 1003.6
20260506042033 10 269 0.0 0.0 0.00 0.05 0.05 58 1003.7
20260506041549 10 283 0.0 0.0 0.00 0.05 0.05 58 1003.9
20260506041032 10 243 0.0 0.0 0.00 0.05 0.05 59 1003.9
20260506040532 10 243 0.0 0.0 0.00 0.05 0.05 59 1003.8
20260506040033 10 245 0.0 0.0 0.00 0.05 0.05 61 1003.8
20260506035535 10 288 0.0 0.0 0.00 0.05 0.05 60 1003.7
20260506035032 10 261 0.0 0.0 0.00 0.05 0.05 62 1003.8
20260506034547 10 243 0.0 0.0 0.00 0.05 0.05 62 1003.9
20260506034031 10 243 0.0 0.0 0.00 0.05 0.05 61 1003.8
20260506033530 10 245 0.0 0.0 0.00 0.05 0.05 62 1003.7
20260506033031 10 243 0.0 0.0 0.00 0.05 0.05 61 1003.8
20260506032533 10 247 0.0 0.0 0.00 0.05 0.05 62 1003.6
20260506032031 10 272 0.0 0.0 0.00 0.05 0.05 64 1003.7
20260506031531 10 274 0.0 0.0 0.00 0.05 0.05 65 1003.8
20260506031031 10 251 0.0 0.0 0.00 0.05 0.05 66 1003.9
20260506030531 10 251 0.0 0.0 0.00 0.05 0.05 65 1004.1
20260506030032 10 251 0.0 0.0 0.00 0.05 0.05 63 1003.9
20260506025533 10 224 0.0 0.0 0.00 0.05 0.05 63 1003.8
20260506025030 10 288 0.0 0.0 0.00 0.05 0.05 66 1004.0
20260506024534 10 215 0.0 0.0 0.00 0.05 0.05 67 1004.0
20260506024033 10 238 0.0 0.0 0.00 0.05 0.05 68 1004.2
20260506023533 10 243 0.0 0.0 0.00 0.05 0.05 70 1004.2
20260506023030 10 264 0.0 0.0 0.00 0.05 0.05 72 1004.0
20260506022529 10 241 0.0 0.0 0.00 0.05 0.05 73 1003.8
20260506022029 10 236 0.0 0.0 0.00 0.05 0.05 74 1003.7
20260506021529 10 236 0.0 0.0 0.00 0.05 0.05 73 1003.6
20260506021029 10 241 0.0 0.0 0.00 0.05 0.05 75 1003.7
20260506020531 10 241 0.0 0.0 0.00 0.05 0.05 74 1003.7
20260506020027 10 241 0.0 0.0 0.00 0.05 0.05 73 1003.5
20260506015527 10 267 0.0 0.0 0.00 0.05 0.05 75 1003.4
20260506015028 10 239 0.0 0.0 0.00 0.05 0.05 83 1003.4
20260506014525 10 239 0.0 0.0 0.00 0.05 0.05 83 1003.4
20260506014025 10 131 0.0 0.0 0.00 0.05 0.05 85 1003.4
20260506013525 10 131 0.0 0.0 0.00 0.05 0.05 86 1003.5
20260506013037 10 131 0.0 0.0 0.00 0.05 0.05 86 1003.5
20260506012524 10 131 0.0 0.0 0.00 0.05 0.05 87 1003.5
20260506012024 10 131 0.0 0.0 0.00 0.05 0.05 86 1003.4
20260506011527 10 131 0.0 0.0 0.00 0.05 0.05 86 1003.4
20260506011024 10 131 0.0 0.0 0.00 0.05 0.05 86 1003.3
20260506010524 10 131 0.0 0.0 0.00 0.05 0.05 86 1003.3
20260506010025 10 131 0.0 0.0 0.00 0.05 0.05 86 1003.4
20260506005526 10 131 0.0 0.0 0.00 0.05 0.05 86 1003.2
20260506005023 10 131 0.0 0.0 0.00 0.05 0.05 86 1003.2
20260506004523 10 131 0.0 0.0 0.00 0.05 0.05 86 1003.2
20260506004022 10 131 0.0 0.0 0.00 0.05 0.05 85 1003.2
20260506003522 10 131 0.0 0.0 0.00 0.05 0.05 84 1003.1
20260506003022 10 131 0.0 0.0 0.00 0.05 0.05 84 1003.0
20260506002522 11 131 0.0 0.0 0.00 0.05 0.05 83 1003.0
20260506002022 11 131 0.0 0.0 0.00 0.05 0.05 82 1002.9
20260506001522 11 131 0.0 0.0 0.00 0.05 0.05 82 1002.9
20260506001022 11 131 0.0 0.0 0.00 0.05 0.05 82 1002.9
20260506000523 11 131 0.0 0.0 0.00 0.05 0.05 82 1002.9
20260506000022 11 131 0.0 0.0 0.00 0.05 0.05 81 1002.6
20260505235521 11 131 0.0 0.0 0.00 0.05 0.05 81 1002.7
20260505235022 11 131 0.0 0.0 0.00 0.05 0.05 80 1002.5
20260505234524 11 131 0.0 0.0 0.00 0.05 0.05 80 1002.5
20260505234024 11 194 0.0 0.0 0.00 0.05 0.05 80 1002.4
20260505233527 11 194 0.0 0.0 0.00 0.05 0.05 80 1002.5
20260505233027 11 194 0.0 0.0 0.00 0.05 0.05 80 1002.5
20260505232523 11 194 0.0 0.0 0.00 0.05 0.05 81 1002.5
20260505232023 11 194 0.0 0.0 0.00 0.05 0.05 80 1002.5
20260505231527 11 127 0.0 0.0 0.00 0.05 0.05 81 1002.6
20260505231021 11 259 0.0 0.0 0.00 0.05 0.05 80 1002.5
20260505230522 11 284 0.0 0.0 0.00 0.05 0.05 80 1002.6
20260505230022 11 285 0.0 0.0 0.00 0.05 0.05 80 1002.6
20260505225522 11 242 0.0 0.0 0.00 0.05 0.05 80 1002.6
20260505225022 11 276 0.0 1.6 0.00 0.05 0.05 80 1002.6
20260505224520 11 276 0.0 1.6 0.00 0.05 0.05 80 1002.6
20260505224019 11 92 0.0 0.0 0.00 0.05 0.05 80 1002.6
20260505223522 11 236 0.0 0.0 0.00 0.05 0.05 81 1002.7
20260505223018 11 235 0.0 0.0 0.00 0.05 0.05 80 1002.8
20260505222522 11 279 0.0 0.0 0.00 0.05 0.05 81 1002.7
20260505222018 11 253 0.0 0.0 0.00 0.05 0.05 82 1002.8
20260505221518 11 307 0.0 0.0 0.00 0.05 0.05 82 1002.7
20260505221020 11 146 0.0 0.0 0.00 0.05 0.05 84 1002.6
20260505220516 11 161 0.0 0.0 0.00 0.05 0.05 85 1002.6
20260505220029 11 225 0.0 0.0 0.00 0.05 0.05 86 1002.6
20260505215517 11 208 0.0 0.0 0.00 0.05 0.05 86 1002.6
20260505215017 11 229 0.0 0.0 0.00 0.05 0.05 86 1002.6
20260505214522 11 229 0.0 0.0 0.00 0.05 0.05 86 1002.6
20260505214018 11 229 0.0 0.0 0.00 0.05 0.05 85 1002.6
20260505213518 11 199 0.0 0.0 0.00 0.05 0.05 85 1002.6
20260505213017 11 187 0.0 0.0 0.00 0.05 0.05 85 1002.8
20260505212517 11 202 0.0 0.0 0.00 0.05 0.05 84 1002.8
20260505212017 11 136 0.0 0.0 0.00 0.05 0.05 85 1002.6
20260505211517 11 135 0.0 0.0 0.00 0.05 0.05 85 1002.6
20260505211019 11 108 0.0 0.0 0.00 0.05 0.05 84 1002.7
20260505210518 11 216 0.0 0.0 0.00 0.05 0.05 84 1002.7
20260505210017 11 155 0.0 0.0 0.00 0.05 0.05 83 1002.6
20260505205516 11 211 0.0 0.0 0.00 0.05 0.05 83 1002.6
20260505205015 11 110 0.0 0.0 0.00 0.05 0.05 82 1002.6
20260505204519 11 110 0.0 0.0 0.00 0.05 0.05 82 1002.6
20260505204018 11 259 0.0 0.0 0.00 0.05 0.05 83 1002.5
20260505203518 11 156 0.0 0.0 0.00 0.05 0.05 83 1002.7
20260505203019 11 224 0.0 0.0 0.00 0.05 0.05 82 1002.7
20260505202517 11 210 0.0 0.0 0.00 0.05 0.05 83 1002.8
20260505202016 11 218 0.0 0.0 0.00 0.05 0.05 83 1002.8
20260505201514 11 190 0.0 0.0 0.00 0.05 0.05 83 1002.8
20260505201013 11 190 0.0 0.0 0.00 0.05 0.05 83 1002.9
20260505200515 11 179 0.0 0.0 0.00 0.05 0.05 82 1002.9
20260505200017 11 150 0.0 0.0 0.00 0.05 0.05 81 1003.0
20260505195512 11 91 0.0 0.0 0.00 0.05 0.05 82 1002.9
20260505195015 11 224 0.0 0.0 0.00 0.05 0.05 81 1003.1
20260505194509 11 88 0.0 0.0 0.00 0.05 0.05 81 1003.1
20260505194009 10 199 0.0 0.0 0.00 0.05 0.05 81 1003.0
20260505193508 10 261 0.0 0.0 0.00 0.05 0.05 81 1003.0
20260505193010 10 211 0.0 0.0 0.00 0.05 0.05 81 1003.2
20260505192509 10 211 0.0 0.0 0.00 0.05 0.05 81 1003.1
20260505192006 10 211 0.0 0.0 0.00 0.05 0.05 79 1003.2
20260505191515 10 306 0.0 0.0 0.00 0.05 0.05 80 1003.4
20260505191011 10 307 0.0 0.0 0.00 0.05 0.05 79 1003.0
20260505190509 10 288 0.0 0.0 0.00 0.05 0.05 78 1003.0
20260505190006 10 216 0.0 0.0 0.00 0.05 0.05 79 1003.0
20260505185503 10 99 0.0 0.0 0.00 0.05 0.05 80 1002.9
20260505185003 10 99 0.0 0.0 0.00 0.05 0.05 79 1002.8
20260505184505 10 99 0.0 0.0 0.00 0.05 0.05 79 1002.8
20260505184005 10 82 0.0 0.0 0.00 0.05 0.05 79 1002.8
20260505183503 10 352 0.0 0.0 0.00 0.05 0.05 80 1002.7
20260505183002 10 341 0.0 0.0 0.00 0.05 0.05 78 1002.7
20260505182503 10 286 0.0 0.0 0.00 0.05 0.05 80 1002.8
20260505182002 9 285 0.0 0.0 0.00 0.05 0.05 80 1002.8
20260505181503 9 285 0.0 0.0 0.00 0.05 0.05 79 1002.8
20260505181003 9 285 0.0 0.0 0.00 0.05 0.05 80 1002.6
20260505180502 9 277 0.0 0.0 0.03 0.05 0.05 80 1002.5
20260505180002 9 277 0.0 0.0 0.03 0.05 0.05 81 1002.6
20260505175504 8 277 0.0 0.0 0.03 0.05 0.05 82 1002.6
20260505175002 8 36 0.0 0.0 0.05 0.05 0.05 81 1002.5
20260505174502 8 36 0.0 0.0 0.05 0.05 0.05 81 1002.5
20260505174002 8 38 0.0 0.0 0.05 0.05 0.05 83 1002.3
20260505173503 8 103 0.0 0.0 0.05 0.05 0.05 83 1002.4
20260505173001 8 131 0.0 0.0 0.05 0.05 0.05 83 1002.6
20260505172501 7 111 0.0 0.0 0.05 0.05 0.05 83 1002.6
20260505172100 7 112 0.0 0.0 0.05 0.05 0.05 82 1002.6
20260505171601 7 112 0.0 0.0 0.05 0.05 0.05 83 1002.6
20260505171100 7 112 0.0 0.0 0.05 0.05 0.05 85 1002.7
20260505170601 7 113 0.0 0.0 0.03 0.03 0.03 83 1002.6
20260505170058 7 113 0.0 0.0 0.03 0.03 0.03 82 1002.4
20260505165558 7 113 0.0 0.0 0.03 0.03 0.03 81 1002.4
20260505165059 7 113 0.0 0.0 0.00 0.00 0.00 78 1002.3
20260505164056 7 113 0.0 0.0 0.00 0.05 0.00 79 1002.5
20260505163553 7 113 0.0 0.0 0.00 0.05 0.00 76 1002.5
20260505163057 7 113 0.0 0.0 0.00 0.05 0.00 76 1002.6
20260505162551 8 56 0.0 0.0 0.00 0.05 0.00 75 1002.7
20260505162051 8 52 0.0 0.0 0.00 0.05 0.00 73 1002.7
20260505161551 8 343 0.0 0.0 0.00 0.05 0.00 73 1002.7
20260505161050 8 86 0.0 0.0 0.00 0.05 0.00 71 1002.7
20260505160552 8 22 0.0 1.6 0.00 0.05 0.00 71 1002.9
20260505153047 8 81 0.0 0.0 0.00 0.05 0.00 65 1002.1
20260505152547 8 142 0.0 1.6 0.00 0.05 0.00 66 1001.9
20260505152146 9 89 0.0 1.6 0.00 0.05 0.00 63 1001.9
20260505151546 9 39 0.0 1.6 0.00 0.05 0.00 64 1001.8
20260505151046 9 49 0.0 0.0 0.00 0.05 0.00 61 1001.7
20260505150545 9 47 0.0 0.0 0.00 0.05 0.00 61 1001.9
20260505140538 9 70 0.0 1.6 0.00 0.05 0.00 68 1000.8